Terminal Aerodrome Forecast
Issued by NWS

Home | Current Version | Previous Version | Text Only | Print | Product List | Glossary On
Versions: 1 2 3 4 5 6 7 8 9 10 11 12 13 14 15 16 17 18 19 20 21 22 23 24 25
317
FTUS46 KLOX 200909 AAB
TAFSBP
TAF AMD
KSBP 200909Z 2009/2106 17006KT P6SM BKN030 OVC080
     FM201000 14010KT 5SM -RA BR BKN015 OVC025
     FM201300 14018G28KT 2SM RA BR BKN007 OVC015
     FM201800 28020G30KT 4SM -SHRA BR BKN015 OVC025
     FM210200 30014KT P6SM VCSH BKN025=

USA.gov is the U.S. government's official web portal to all federal, state and local government web resources and services.